[[{"header":{"parameterUnit":"m.s-1","parameterCategory":1,"la1":30.2991,"la2":30.254,"lo1":-89.0895,"lo2":-89.0444,"dy":0.0017,"dx":0.0017,"nx":28,"ny":28,"refTime":"2025-01-04T09:00:00:Z","depth":0,"parameterNumber":2,"parameterNumberName":"U-component_of_WINDS"},"data":[0,0,0,0,0,0,0,0,0,0,0,0,0,0,0,0,0,0,0,0,0,0,0,0,0,0,0,0,0,0,0,0,0,0,0,0,0,0,0,0,0,0,0,0,0,0,0,0,0,0,0,0,0,0,0,0,0,0,-6.9064,-6.9065,0,-6.9118,-6.9118,-6.9119,-6.8986,-6.8981,-6.8977,-6.8973,-6.9029,-6.9034,-6.904,0,0,0,0,0,0,0,0,0,0,0,0,0,-6.8848,-6.8853,-6.9064,-6.9065,-6.9066,-6.9118,-6.9118,-6.9119,-6.8986,-6.8981,-6.8976,-6.8971,-6.9027,-6.9034,-6.904,0,0,0,0,0,0,0,0,0,0,0,0,0,-6.8926,-6.8855,-6.9064,-6.9006,-6.9001,-6.9117,-6.9118,-6.9119,-6.8987,-6.8981,-6.8975,-6.8969,-6.9025,-6.9033,-6.9041,-6.9217,0,0,-6.9066,-6.9069,0,0,0,0,0,0,0,0,-6.8922,-6.8934,-6.9014,-6.901,-6.9005,-6.9038,-6.9062,-6.9152,-6.8989,-6.8993,-6.8973,-6.8966,-6.9038,-6.9044,-6.9068,-6.922,-6.9222,-6.9067,-6.9072,-6.9075,-6.9077,0,0,0,0,0,0,0,-6.8917,-6.8931,-6.9085,-6.9015,-6.901,-6.8977,-6.8981,-6.9079,-6.905,-6.8992,-6.8982,-6.899,-6.9034,-6.9061,-6.9068,-6.9223,-6.9066,-6.9074,-6.9079,-6.9082,-6.9521,-6.9527,0,0,0,0,0,0,-6.8919,-6.8928,-6.9084,-6.9087,-6.8947,-6.8986,-6.8991,-6.9034,-6.9048,-6.9044,-6.8996,-6.8984,-6.905,-6.9059,-6.907,-6.9275,-6.9075,-6.9083,-6.9087,-6.9514,-6.9522,-6.953,0,0,0,0,0,0,-6.8915,-6.8934,-6.9081,-6.9005,-6.9021,-6.8996,-6.9046,-6.9038,-6.9065,-6.9051,-6.9045,-6.9028,-6.9045,-6.9058,-6.9181,-6.9275,-6.9086,-6.9094,-6.9506,-6.9517,-6.9526,-6.9689,0,0,0,0,0,0,-6.8909,-6.8933,-6.8999,-6.9007,-6.9026,-6.9192,-6.9052,-6.9044,-6.9079,-6.9064,-6.908,-6.9077,-6.9041,-6.917,-6.9189,-6.9283,-6.91,-6.9497,-6.9511,-6.9523,-6.9675,-6.9703,-6.9727,0,0,0,0,0,-6.8902,-6.9044,-6.9003,-6.9023,-6.9108,-6.9198,-6.9208,-6.9164,-6.9087,-6.9154,-6.9145,-6.9076,-6.9263,-6.9184,-6.9204,-6.9302,-6.9491,-6.9507,-6.9522,-6.9663,-6.9698,-6.9727,0,0,0,0,0,0,-6.9048,-6.9043,-6.8999,-6.9148,-6.9174,-6.9175,-6.9257,-6.9203,-6.9251,-6.9236,-6.9179,-6.9184,-6.9317,-6.9322,-6.9234,-6.9473,-6.9364,-6.9384,-6.9464,-6.9497,-6.9523,-6.9517,-6.9107,0,0,0,0,0,-6.9097,-6.917,-6.9163,-6.9295,-6.931,-6.9282,-6.932,-6.9283,-6.9309,-6.9319,-6.9319,-6.9347,-6.9411,-6.9455,-6.9513,-6.9676,-6.9677,-6.9753,-6.978,-6.9802,-6.9819,-6.9904,-6.9937,-6.958,-6.958,-6.958,0,0,-6.92,-6.9207,-6.9256,-6.9324,-6.934,-6.9417,-6.9292,-6.9379,-6.9435,-6.9332,-6.9447,-6.9449,-6.9476,-6.9619,-6.9682,-6.9627,-6.9918,-6.9821,-6.9838,-6.9844,-6.9923,-6.9957,-6.9987,-6.959,-6.9588,-6.9587,0,0,-6.9426,-6.944,-6.955,-6.9569,-6.9595,-6.9575,-6.9602,-6.9612,-6.9609,-6.9724,-6.9648,-6.9715,-6.9827,-6.9849,-6.9875,-7.0111,-7.0049,-7.0132,-7.0269,-7.0352,-7.038,-7.0405,-7.0487,-7.0517,-7.015,-7.015,-7.0151,0,-6.955,-6.9662,-6.9614,-6.9705,-6.9737,-6.9648,-6.9759,-6.978,-6.9825,-6.9849,-6.9787,-6.9926,-6.9938,-7.0084,-7.0142,-7.0167,-7.0195,-7.0128,-7.038,-7.0404,-7.0427,-7.0504,-7.0536,-7.016,-7.0159,-7.0158,-7.0157,0,-6.9813,-6.9892,-6.9978,-7.0023,-7.0065,-7.0166,-7.0133,-7.0181,-7.0142,-7.013,-7.0248,-7.0259,-7.0318,-7.0351,-7.0314,-7.0492,-7.0457,-7.039,-7.0278,-7.0471,-7.0543,-7.0573,-7.0174,-7.017,-7.0167,-7.0165,0,0,-7.0129,-7.0146,-7.0179,-7.0197,-7.022,-7.028,-7.0379,-7.0436,-7.0477,-7.0512,-7.0592,-7.069,-7.0627,-7.0656,-7.0622,-7.0696,-7.0879,-7.0618,-7.0617,-7.0664,-7.1074,-7.1123,-7.1159,-7.084,-7.0845,-7.085,-7.1071,0,-7.035,-7.0516,-7.0476,-7.0641,-7.0713,-7.063,-7.0715,-7.0739,-7.073,-7.079,-7.0781,-7.085,-7.0763,-7.078,-7.085,-7.0842,-7.0961,-7.0826,-7.0912,-7.0916,-7.0905,-7.1196,-7.1248,-7.1457,-7.1099,-7.1104,-7.1108,0,-7.0629,-7.0674,-7.0846,-7.0856,-7.0885,-7.0962,-7.1011,-7.107,-7.1096,-7.1084,-7.1118,-7.1069,-7.1165,-7.1056,-7.1188,-7.1097,-7.1131,-7.1133,-7.114,-7.1144,-7.1021,-7.1206,-7.1522,-7.1552,-7.1152,-7.1148,-7.1145,0,-7.084,-7.0943,-7.1059,-7.1078,-7.1094,-7.115,-7.116,-7.1179,-7.1216,-7.1259,-7.1282,-7.1338,-7.1367,-7.1411,-7.1378,-7.1302,-7.1515,-7.1403,-7.1507,-7.1508,-7.1553,-7.155,-7.1876,-7.158,-7.158,-7.1579,-7.1578,0,-7.1089,-7.1197,-7.1153,-7.1224,-7.1343,-7.1296,-7.1415,-7.1415,-7.1433,-7.1502,-7.1436,-7.1503,-7.1457,-7.152,-7.1495,-7.1607,-7.1622,-7.1615,-7.1606,-7.1619,-7.1619,-7.1637,-7.1621,-7.1587,-7.1585,-7.1584,-7.1582,0,-7.1342,-7.1318,-7.1438,-7.1444,-7.1448,-7.1535,-7.154,-7.1606,-7.1593,-7.1682,-7.17,-7.1681,-7.1752,-7.1724,-7.18,-7.1783,-7.1925,-7.19,-7.1916,-7.1909,-7.2013,-7.2002,-7.236,-7.2403,-7.2082,-7.2085,-7.2088,0,-7.1501,-7.1582,-7.1597,-7.1638,-7.1652,-7.1721,-7.1758,-7.1716,-7.1758,-7.1794,-7.1855,-7.192,-7.197,-7.2087,-7.2079,-7.2137,-7.211,-7.2232,-7.2118,-7.2128,-7.2109,-7.2103,-7.211,-7.2253,-7.2257,-7.226,-7.2263,0,-7.1784,-7.1769,-7.1825,-7.1878,-7.1924,-7.1964,-7.1997,-7.2035,-7.1996,-7.2046,-7.2117,-7.2156,-7.2233,-7.2298,-7.235,-7.236,-7.2305,-7.2299,-7.2325,-7.2337,-7.2343,-7.2338,-7.1975,-7.229,-7.2287,-7.2285,-7.2284,-7.2283,-7.1993,-7.2061,-7.2081,-7.2146,-7.2168,-7.2201,-7.2262,-7.2258,-7.2317,-7.2375,-7.2348,-7.2431,-7.2455,-7.2518,-7.2536,-7.26,-7.2552,-7.2592,-7.2601,-7.261,-7.2622,-7.2336,-7.261,-7.2609,-7.2608,-7.2607,-7.2607,0,-7.227,-7.228,-7.2341,-7.239,-7.2441,-7.2386,-7.2421,-7.2467,-7.254,-7.2567,-7.2617,-7.27,-7.2763,-7.2761,-7.282,-7.2871,-7.2848,-7.2888,-7.2882,-7.2885,-7.2663,-7.2633,-7.2906,-7.2906,-7.2906,-7.2906,-7.2906,-7.2906,-7.242,-7.2531,-7.2518,-7.2639,-7.2648,-7.2728,-7.2752,-7.2783,-7.2804,-7.2898,-7.295,-7.2949,-7.2964,-7.3023,-7.3079,-7.3077,-7.31,-7.315,-7.3138,-7.293,-7.29,-7.2872,-7.2843,-7.3156,-7.3156,-7.3354,-7.3356,-7.3357]},{"header":{"parameterUnit":"m.s-1","parameterCategory":1,"la1":30.2991,"la2":30.254,"lo1":-89.0895,"lo2":-89.0444,"dy":0.0017,"dx":0.0017,"nx":28,"ny":28,"refTime":"2025-01-04T09:00:00:Z","depth":0,"parameterNumber":3,"parameterNumberName":"V-component_of_WINDS"},"data":[0,0,0,0,0,0,0,0,0,0,0,0,0,0,0,0,0,0,0,0,0,0,0,0,0,0,0,0,0,0,0,0,0,0,0,0,0,0,0,0,0,0,0,0,0,0,0,0,0,0,0,0,0,0,0,0,0,0,0.7725,0.7725,0,0.7779,0.778,0.778,0.7814,0.7814,0.7814,0.7814,0.7868,0.7869,0.7871,0,0,0,0,0,0,0,0,0,0,0,0,0,0.765,0.7652,0.7725,0.7726,0.7726,0.7779,0.778,0.7781,0.7814,0.7814,0.7814,0.7814,0.7868,0.7869,0.7871,0,0,0,0,0,0,0,0,0,0,0,0,0,0.7691,0.7652,0.7725,0.7749,0.7752,0.7779,0.778,0.7781,0.7814,0.7814,0.7814,0.7815,0.7867,0.7869,0.7871,0.7877,0,0,0.7877,0.7877,0,0,0,0,0,0,0,0,0.7689,0.7694,0.7745,0.7748,0.7751,0.779,0.7773,0.7813,0.7814,0.779,0.7814,0.7815,0.7842,0.7846,0.7855,0.788,0.7882,0.7877,0.7878,0.7879,0.7879,0,0,0,0,0,0,0,0.7686,0.7692,0.7746,0.7746,0.7749,0.7758,0.7764,0.7781,0.7814,0.7792,0.7795,0.7801,0.7843,0.7853,0.7857,0.7883,0.7877,0.7878,0.788,0.788,0.7918,0.7918,0,0,0,0,0,0,0.768,0.7689,0.7745,0.7748,0.772,0.7759,0.7766,0.7777,0.7814,0.782,0.7801,0.7802,0.785,0.7855,0.7859,0.7871,0.7879,0.7881,0.7882,0.7918,0.7918,0.7918,0,0,0,0,0,0,0.7678,0.7684,0.7742,0.7719,0.7728,0.776,0.7772,0.7778,0.7788,0.782,0.7826,0.7805,0.785,0.7856,0.7873,0.7873,0.7881,0.7883,0.7918,0.7918,0.7918,0.7893,0,0,0,0,0,0,0.7676,0.7683,0.7686,0.7719,0.7729,0.7755,0.7772,0.7779,0.7791,0.7794,0.7826,0.7831,0.7851,0.787,0.7875,0.7876,0.7885,0.7919,0.7918,0.7918,0.7894,0.7891,0.789,0,0,0,0,0,0.7673,0.7675,0.7686,0.7692,0.7732,0.7755,0.7761,0.7784,0.7791,0.7794,0.7815,0.783,0.7872,0.7872,0.7877,0.7878,0.7919,0.7918,0.7918,0.7894,0.7892,0.789,0,0,0,0,0,0,0.764,0.768,0.7692,0.7705,0.7727,0.7761,0.7765,0.7781,0.78,0.7801,0.783,0.7836,0.7851,0.7866,0.7865,0.7888,0.7897,0.7898,0.7877,0.7875,0.7873,0.7869,0.7886,0,0,0,0,0,0.7634,0.765,0.7684,0.7693,0.7703,0.7732,0.7743,0.776,0.7783,0.7792,0.7814,0.7836,0.7854,0.7865,0.7884,0.7896,0.7904,0.79,0.7898,0.7896,0.7897,0.7907,0.7906,0.7917,0.7917,0.7917,0,0,0.7622,0.7646,0.7654,0.7687,0.7705,0.7721,0.774,0.7755,0.7767,0.7794,0.7812,0.7829,0.7855,0.7871,0.7879,0.7884,0.7896,0.7896,0.7894,0.7896,0.7906,0.7905,0.7904,0.7917,0.7917,0.7917,0,0,0.7609,0.7628,0.7639,0.7658,0.7687,0.7707,0.7709,0.7742,0.7755,0.7773,0.7795,0.781,0.784,0.7859,0.7872,0.7869,0.7884,0.7875,0.7864,0.7874,0.7873,0.7872,0.7873,0.7872,0.7875,0.7875,0.7875,0,0.7591,0.7616,0.7642,0.7658,0.7672,0.7699,0.771,0.7727,0.7759,0.7769,0.7775,0.7816,0.7835,0.7856,0.7856,0.7865,0.787,0.7871,0.7871,0.7871,0.787,0.7871,0.7871,0.7873,0.7874,0.7874,0.7874,0,0.7593,0.761,0.7615,0.7648,0.7663,0.7676,0.7705,0.7717,0.7733,0.7753,0.7773,0.7797,0.7822,0.7829,0.7843,0.7853,0.7855,0.7866,0.7876,0.7868,0.7869,0.7869,0.7872,0.7872,0.7873,0.7873,0,0,0.7559,0.7608,0.761,0.7626,0.7661,0.7675,0.769,0.7715,0.7726,0.7748,0.7762,0.7789,0.78,0.7815,0.7833,0.7841,0.7839,0.7851,0.7852,0.7849,0.7853,0.7845,0.7845,0.785,0.785,0.785,0.7851,0,0.7552,0.7581,0.7606,0.7626,0.7643,0.767,0.7684,0.7707,0.7726,0.7744,0.7765,0.7784,0.7796,0.7806,0.7815,0.7838,0.7841,0.7838,0.7864,0.7864,0.7857,0.7846,0.7837,0.7837,0.7852,0.7852,0.7852,0,0.7547,0.757,0.7592,0.7628,0.7636,0.7647,0.7675,0.7691,0.7718,0.7732,0.775,0.777,0.7788,0.7796,0.7822,0.782,0.7832,0.7845,0.7846,0.7849,0.7858,0.785,0.7838,0.7838,0.7853,0.7853,0.7853,0,0.7522,0.7558,0.7577,0.759,0.7631,0.7639,0.7657,0.7685,0.7699,0.7723,0.7733,0.7758,0.7771,0.7791,0.7817,0.782,0.7841,0.7851,0.7853,0.7852,0.7856,0.7855,0.7846,0.7863,0.7863,0.7863,0.7863,0,0.7512,0.7524,0.7567,0.7578,0.7593,0.7623,0.7638,0.7658,0.7683,0.7699,0.7723,0.7738,0.7771,0.779,0.781,0.783,0.7835,0.7847,0.7853,0.7846,0.7844,0.7854,0.7855,0.7863,0.7863,0.7863,0.7863,0,0.7486,0.7515,0.7537,0.7575,0.7585,0.7595,0.7628,0.7641,0.7662,0.7683,0.7689,0.7723,0.7747,0.7775,0.7807,0.7821,0.7839,0.7847,0.783,0.7833,0.7835,0.7835,0.7832,0.7834,0.7848,0.7848,0.7848,0,0.7478,0.7489,0.7529,0.7542,0.756,0.758,0.7596,0.7626,0.7642,0.7675,0.7684,0.771,0.7733,0.777,0.7797,0.7822,0.7831,0.7829,0.7835,0.7828,0.7833,0.7832,0.7834,0.7827,0.7827,0.7826,0.7826,0,0.7461,0.7475,0.7497,0.7525,0.7544,0.7567,0.7591,0.76,0.7636,0.7652,0.7677,0.7695,0.773,0.7755,0.7785,0.7803,0.7821,0.7824,0.7826,0.7819,0.781,0.7816,0.7826,0.7824,0.7824,0.7824,0.7824,0.7824,0.7445,0.7457,0.7488,0.7512,0.7534,0.7556,0.7571,0.7595,0.7617,0.7648,0.7665,0.769,0.772,0.7762,0.778,0.78,0.7806,0.7809,0.781,0.781,0.7809,0.7806,0.7806,0.7806,0.7806,0.7806,0.7806,0,0.743,0.7452,0.7475,0.7509,0.7528,0.7544,0.7573,0.7588,0.761,0.7637,0.7659,0.7689,0.7715,0.7746,0.7774,0.7785,0.7794,0.7791,0.7791,0.7795,0.7801,0.7797,0.7784,0.7784,0.7784,0.7784,0.7784,0.7784,0.7425,0.7447,0.7465,0.7498,0.752,0.7546,0.7561,0.7582,0.7604,0.7637,0.7659,0.7679,0.7708,0.7739,0.7763,0.7772,0.7781,0.7777,0.7787,0.7792,0.7794,0.7796,0.7793,0.7778,0.7778,0.778,0.778,0.778]}]]